Вернуться в каталог

STARLINK-32029

АктивенСвязьVLEO
NORAD 60145·PAYLOAD·🇺🇸 United States

Запущен Jun 27, 2024 с Cape Canaveral Space Force Station

Loading…

Ближайшие Пролёты (ближайшие 24 часа)

TLE

СвежийSource: CelesTrak SupGP

Эпоха: Sep 15, 2026, 02:02 UTC

1 60145C 24120L   26258.08520833  .00026381  00000+0  77895-3 0  2583
2 60145  53.1578 156.8467 0001177  81.5832 177.7123 15.34396960    12

Отслеживайте STARLINK-32029 в реальном времени с AllMySat

Download on the App Store